Location: Warszawa
(52.2500°N, 21.0000°E)
Time: 23:36:06
(UTC+02:00)

AO-27 - Pass Details

Date: 26 April 2024
Orbit: 783 x 797 km, 98.8° (Epoch: 26 May)

Event Time Altitude Azimuth Distance (km) Brightness Sun altitude
Exits shadow 20:47:43 - 165° (SSE) 3,119 10.3 -8.0°
Reaches altitude 10° 20:49:37 10° 166° (SSE) 2,364 9.7 -8.2°
Maximum altitude 20:54:51 83° 254° (WSW) 811 7.8 -8.9°
Drops below altitude 10° 21:00:08 10° 343° (NNW) 2,380 11.1 -9.5°
Sets 21:02:28 0° 344° (NNW) 3,313 11.9 -9.8°
